Location: Hobi?a Gr?di?te
(45.4833°N, 22.7833°E)
Time: 11:19:12
(UTC+00:00)

ATLAS CENTAUR R/B - Pass Details

Date: 28 January 2023
Orbit: 450 x 653 km, 64.7° (Epoch: 19 March)

Event Time Altitude Azimuth Distance (km) Brightness Sun altitude
Rises 17:34:33 0° 229° (SW) 2,983 5.9 -22.0°
Reaches altitude 10° 17:36:56 10° 234° (SW) 2,067 5.0 -22.4°
Maximum altitude 17:41:32 52° 311° (NW) 807 2.3 -23.2°
Enters shadow 17:43:15 33° 7° (N) 1,068 2.6 -23.5°
